Flag for U.S.A. Weather past 2 weeks in Newport News, Virginia, U.S.A.

Now
48 °F

Light rain. Passing clouds.


Feels Like: 42 °F
Forecast: 44 / 56 °F
Wind: 17 mph from East

Location: Newport News / Williamsburg International Airport


UV Index: 0 (Low)

Visibility: 10 mi


Pressure: 30.53 "Hg

Humidity: 66%

Dew point: 37 °F

Location of Newport NewsLocation

Historic Weather in Newport News

°F

Newport News temperature yesterday

Maximum temperature yesterday: 53 °F (at 2:54 PM)
Minimum temperature yesterday: 37 °F (at 5:54 AM)
Average temperature yesterday: 44 °F

Past Weeks' High & Low Weather Summary

 TemperatureHumidityPressure
High85 °F (Apr 13, 2:54 PM)90% (Apr 4, 5:02 AM)30.61 "Hg (Apr 4, 5:02 AM)
Low37 °F (Apr 16, 5:54 AM)23% (Apr 10, 12:54 PM)29.56 "Hg (Apr 8, 10:54 AM)
Average62 °F58%30.03 "Hg
* Reported Apr 2 8:54 PM — Apr 17 8:54 PM, Newport News, Weather by CustomWeather, © 2014

Note: Actual official high and low records may vary slightly from our data, if they occured in-between our weather recording intervals... More about our weather records

Advertising

Historic Weather Conditions — Data for Previous 24 hours

 ConditionsComfort  
Time TempWeatherWind HumidityBarometerVisibility
8:54 PM
Apr 17
48 °FLight rain. Passing clouds.17 mph66%30.53 "Hg10 mi
7:54 PM48 °FLight rain. Partly sunny.13 mph66%30.54 "Hg10 mi
6:54 PM50 °FLight rain. Broken clouds.18 mph63%30.54 "Hg10 mi
5:54 PM52 °FLight rain. Partly sunny.16 mph61%30.55 "Hg10 mi
4:54 PM53 °FLight rain. Broken clouds.16 mph61%30.54 "Hg10 mi
3:54 PM55 °FLight rain. Passing clouds.16 mph57%30.55 "Hg10 mi
2:54 PM56 °FLight rain. Passing clouds.16 mph53%30.57 "Hg10 mi
1:54 PM55 °FPassing clouds.14 mph53%30.57 "Hg10 mi
12:54 PM55 °FPassing clouds.10 mph49%30.59 "Hg10 mi
11:54 AM53 °FPartly sunny.13 mph56%30.60 "Hg10 mi
10:54 AM53 °FPassing clouds.15 mph55%30.61 "Hg10 mi
9:54 AM51 °FSunny.15 mph56%30.60 "Hg10 mi
8:54 AM50 °FSunny.15 mph54%30.58 "Hg10 mi
7:54 AM48 °FSunny.13 mph56%30.57 "Hg10 mi
6:54 AM44 °FClear.9 mph63%30.55 "Hg10 mi
5:54 AM44 °FPassing clouds.10 mph60%30.53 "Hg10 mi
4:54 AM44 °FClear.8 mph60%30.53 "Hg10 mi
3:54 AM44 °FClear.8 mph63%30.52 "Hg10 mi
2:54 AM43 °FClear.7 mph65%30.50 "Hg10 mi
1:54 AM39 °FClear.3 mph79%30.51 "Hg10 mi
12:54 AM40 °FClear.No wind80%30.51 "Hg10 mi
11:54 PM
Apr 16
40 °FClear.No wind80%30.51 "Hg10 mi
10:54 PM41 °FClear.No wind74%30.50 "Hg10 mi
9:54 PM43 °FClear.No wind68%30.50 "Hg10 mi
Weather by CustomWeather, © 2014

See weather overview